SCP
0 0 0 0 0 0 0 0 0 0 0 0 0 0 0 0 0 0 0 0 0 0 0 0 0 0 0 0 0 0 0 0 0 0 0 0 0 0
0 0 0 0 0 0 0 0 0 0 0 0 0 0 0 0 0 0 0 0 0 0 0 0 0 0 0 0 0 0 0 0 0 0 0 0 0 0
0 0 0 0 0 0 0 0 0 0 0 0 0 0 0 0 0 0 0 0 0 0 0 0 0 0 0 0 0 0 0 0 0 0 0 0 0 0
0 0 0 0 0 0 0 0 0 0 0 0 0 0 0 0 0 0 0 0 0 0 0 0 0 0 0 0 0 0 0 0 0 0 0 0 0 0
0 0 0 0 0 0 0 0 0 0 0 0 0 0 0 0 0 0 0 0 0 0 0 0 0 0 0 0 0 0 0 0 0 0 0 0 0 0
0 0 0 0 0 0 0 0 0 0 0 0 0 0 0 0 0 0 0 0 0 0 0 0 0 0 0 0 0 0 0 0 0 0 0 0 0 0
0 0 0 0 0 0 0 0 0 0 0 0 0 0 0 0 0 0 0 0 0 0 0 0 0 0 0 0 0 0 0 0 0 0 0 0 0 0
0 0 0 0 0 0 0 0 0 0 0 0 0 0 0 0 0 0 0 0 0 0 0 0 0 0 0 0 0 0 0 0 0 0 0 0 0 0
1 1 0 0 0 0 0 0 0 0 0 0 0 0 0 0 0 0 0 0 0 0 0 0 0 0 0 0 0 0 0 0 0 0 0 0 0 0
1 1 0 0 0 0 0 0 0 0 0 0 0 0 0 0 0 0 0 0 0 0 0 0 0 0 0 0 0 0 0 0 0 0 0 0 0 0
0 0 0 0 0 0 0 0 0 0 0 0 0 0 0 0 0 0 0 0 0 0 0 0 0 0 0 0 0 0 0 0 0 0 0 0 0 0
0 0 0 0 0 0 0 0 0 0 0 0 0 0 0 0 0 0 0 0 0 0 0 0 0 0 0 0 0 0 0 0 0 0 0 0 0 0
0 0 0 0 0 0 0 0 0 0 0 0 0 0 0 0 0 0 0 0 0 0 0 0 0 0 0 0 0 0 0 0 0 0 0 0 0 0
0 0 0 0 0 0 0 0 0 0 0 0 0 0 0 0 0 0 0 0 0 0 0 0 0 0 0 0 0 0 0 0 0 0 0 0 0 0
0 0 0 0 0 0 0 0 0 0 0 0 0 0 0 0 0 0 0 0 0 0 0 0 0 0 0 0 0 0 0 0 0 0 0 0 0 0
0 0 0 0 0 0 0 0 0 0 0 0 0 0 0 0 0 0 0 0 0 0 0 0 0 0 0 0 0 0 0 0 0 0 0 0 0 0
0 0 0 0 0 0 0 0 0 0 0 0 0 0 0 0 0 0 0 0 0 0 0 0 0 0 0 0 0 0 0 0 0 0 0 0 0 0
0 0 0 0 0 0 0 0 0 0 0 0 0 0 0 0 0 0 0 0 0 0 0 0 0 0 0 0 0 0 0 0 0 0 0 0 0 0
0 0 0 0 0 0 0 0 0 0 0 0 0 0 0 0 0 0 0 0 0 0 0 0 0 0 0 0 0 0 0 0 0 0 0 0 0 0
0 0 0 0 0 0 0 0 0 0 0 0 0 0 0 0 0 0 0 0 0 0 0 0 0 0 0 0 0 0 0 0 0 0 0 0 0 0
0 0 0 0 0 0 0 0 0 0 0 0 0 0 0 0 0 0 0 0 0 0 0 0 0 0 0 0 0 0 0 0 0 0 0 0 0 0
0 0 0 0 0 0 0 0 0 0 0 0 0 0 0 0 0 0 0 0 0 0 0 0 0 0 0 0 0 0 0 0 0 0 0 0 0 0
0 0 0 0 0 0 0 0 0 0 0 0 0 0 0 0 0 0 0 0 0 0 0 0 0 0 0 0 0 0 0 0 0 0 0 0 0 0
Wind_Speed
5 5 4 3 3 4 3 3 3 2 3 2 1 1 1 1 2 2 2 3 3 3 3 3 3 3 3 2 2 2 2 1 1 1 1 1 1 1
4 4 4 3 3 3 3 3 3 3 3 2 2 2 2 2 1 2 2 3 3 3 3 3 3 3 3 3 3 2 2 2 2 2 2 2 1 1
4 4 5 3 3 3 3 3 3 3 4 3 2 2 2 3 2 2 2 2 2 3 4 4 4 4 4 4 3 3 3 2 2 2 2 2 2 2
5 4 5 3 4 3 3 4 4 4 4 4 2 2 3 3 3 3 2 2 2 3 4 4 4 4 4 4 4 4 3 3 3 2 2 2 2 2
5 6 6 5 5 4 4 4 3 3 3 3 3 2 1 2 2 2 2 2 2 3 4 5 5 5 5 5 5 5 4 4 3 3 2 2 2 2
6 6 6 6 6 5 5 5 4 3 3 3 3 2 2 1 2 2 2 2 2 2 3 3 4 5 6 6 6 5 5 5 4 4 4 3 3 2
5 5 6 7 7 6 5 4 4 4 3 3 3 2 2 2 3 2 3 2 2 2 2 2 2 3 4 6 7 7 6 6 6 6 6 5 5 4
4 4 5 5 6 7 7 7 7 6 5 4 4 4 5 4 3 3 3 2 3 2 3 3 3 4 4 4 6 8 8 7 7 7 7 6 6 6
4 3 3 3 4 4 4 5 6 7 8 6 6 6 5 5 5 5 5 4 4 2 3 3 3 4 4 4 7 8 9 8 8 8 8 7 7 6
4 4 4 4 3 4 3 3 4 5 6 6 6 7 6 5 6 6 5 4 2 2 3 3 3 3 3 3 6 9 9 8 8 8 7 7 7 7
5 5 5 5 4 3 3 4 4 4 5 6 6 6 6 6 5 3 3 3 3 3 4 3 2 2 2 3 4 7 8 8 8 8 8 7 7 6
4 4 6 5 5 4 4 5 5 5 3 3 4 4 4 4 6 6 5 4 3 3 4 4 2 2 2 2 2 3 4 6 8 8 8 7 7 5
4 4 4 5 5 5 5 5 7 5 3 3 3 3 3 3 3 4 5 5 5 4 4 4 3 3 3 2 2 2 3 3 4 5 6 7 8 7
5 4 4 5 6 5 4 5 6 4 3 3 3 3 3 3 3 4 5 5 5 5 5 5 4 4 4 3 2 2 2 3 3 3 3 5 6 7
4 4 4 5 4 4 4 5 4 3 3 3 4 4 3 3 3 3 3 3 3 4 4 5 4 4 4 4 3 3 3 3 4 4 3 4 4 4
3 2 3 3 3 3 2 3 3 3 4 4 3 3 2 2 2 2 2 2 2 2 2 3 4 5 4 4 4 4 3 4 4 4 3 3 4 4
2 1 1 1 1 2 2 2 2 2 3 3 3 3 2 2 2 2 2 2 3 2 2 1 2 2 4 3 3 4 4 3 3 4 4 4 4 5
3 2 2 2 3 3 3 2 2 2 3 3 3 3 3 2 2 2 2 2 2 3 2 2 1 1 1 2 3 4 3 3 3 3 4 4 4 4
2 3 3 3 3 3 3 3 3 3 3 3 3 3 3 3 3 2 2 2 2 2 2 2 2 2 3 3 2 3 3 2 2 2 3 4 4 4
3 3 3 3 4 4 4 4 3 3 2 3 3 3 3 3 3 3 3 3 3 3 2 2 2 3 4 3 2 2 4 4 3 3 3 2 2 2
3 3 3 3 4 4 4 4 4 4 3 3 3 4 3 3 3 3 3 4 4 3 3 3 3 3 2 1 1 1 1 3 4 3 3 3 2 2
3 3 3 3 3 3 3 3 3 3 3 3 3 3 3 3 4 4 3 3 3 3 3 2 1 2 2 3 3 3 2 1 1 2 2 3 3 4
3 3 3 3 3 3 3 3 3 3 3 4 4 3 3 3 3 3 3 3 3 2 2 2 2 2 2 3 3 2 2 1 1 0 0 1 3 4
Wind_Direction
224 224 229 232 213 214 207 197 200 238 261 244 254 266 256 241 237 221 216 209 207 208 211 203 191 184 179 172 162 152 153 158 162 143 128 133 162 184
224 224 231 235 224 216 212 213 212 214 238 238 235 253 252 253 242 233 228 213 209 208 206 200 195 188 183 179 172 167 162 163 164 153 144 133 129 151
230 226 233 226 226 221 209 210 213 207 232 253 238 250 231 238 249 251 238 227 227 216 207 204 200 194 191 187 184 180 176 174 170 164 157 149 137 129
230 228 237 230 229 223 215 219 219 213 214 240 244 230 233 233 233 242 245 243 244 230 218 213 205 200 196 193 192 189 188 187 185 177 169 161 154 146
225 227 234 224 230 228 223 225 227 223 211 218 240 230 239 226 234 245 238 244 244 233 227 223 214 209 207 205 205 201 201 200 196 196 200 194 185 178
227 226 227 222 227 229 229 229 223 220 212 217 234 236 235 221 208 227 245 241 248 244 232 224 217 215 212 213 213 209 208 209 206 202 208 207 195 188
235 233 232 228 229 227 229 223 212 213 215 224 235 230 225 210 219 212 234 252 253 230 222 229 225 230 225 223 220 215 210 209 208 206 204 200 199 200
233 243 242 234 237 235 234 225 213 212 219 224 231 234 232 222 211 212 214 222 248 204 212 243 223 237 235 229 222 213 208 207 208 208 206 200 200 202
221 231 248 251 237 237 238 231 226 226 219 216 229 236 231 218 205 213 214 221 236 204 198 241 227 241 238 233 219 216 211 207 207 209 206 203 203 203
216 219 228 245 245 231 234 235 237 236 229 224 231 237 237 224 210 214 216 218 240 208 193 230 230 242 243 235 218 213 212 209 207 207 206 203 203 205
222 218 219 227 240 225 224 237 247 253 240 232 239 248 250 237 212 194 198 208 238 229 199 209 218 246 254 242 223 209 212 212 210 208 208 204 200 199
229 227 227 226 227 210 213 224 238 248 253 260 260 263 253 235 211 206 206 211 224 229 195 193 200 195 242 233 220 209 210 213 209 208 207 204 194 194
230 234 234 219 222 224 219 225 233 236 237 245 257 262 257 236 220 219 218 216 218 231 199 188 195 195 212 234 236 216 208 208 205 209 207 203 196 194
231 231 228 216 220 228 227 236 232 224 224 230 243 248 245 240 235 231 228 230 232 235 213 195 201 197 198 217 230 209 207 209 206 204 200 191 194 199
231 229 224 220 222 225 230 232 226 216 217 229 241 248 245 243 245 242 235 230 243 246 225 216 212 205 207 216 215 204 206 209 205 202 195 195 195 189
231 222 214 212 219 228 227 219 221 224 224 234 245 252 245 240 242 241 241 236 246 259 236 222 216 207 218 223 216 216 210 201 195 199 196 202 203 198
202 194 194 201 216 226 230 235 232 224 232 241 240 247 249 244 248 242 236 233 235 244 250 239 228 225 228 218 220 221 213 214 206 189 189 207 216 208
174 204 215 219 226 234 239 248 246 241 237 238 236 234 236 237 247 243 229 232 243 247 244 234 203 188 213 252 230 225 215 214 207 193 196 211 226 220
191 216 219 223 228 232 234 236 243 247 240 234 234 232 227 228 231 237 232 233 243 252 249 231 210 198 221 248 246 214 214 213 202 208 209 216 231 229
217 230 232 229 231 235 238 239 241 242 239 240 236 234 229 224 226 230 228 233 237 241 243 229 214 217 228 236 243 247 214 206 203 213 214 219 248 243
232 233 234 233 232 235 240 240 237 235 235 237 235 230 230 230 232 230 227 230 233 235 239 243 240 224 228 191 217 258 248 213 209 210 199 196 207 213
234 235 237 237 236 238 242 241 240 241 237 235 236 233 228 226 230 233 230 231 236 237 247 256 218 188 200 208 227 243 267 274 203 167 183 192 195 204
237 239 235 232 235 235 238 238 237 244 244 239 235 232 228 225 226 225 225 225 229 235 235 231 208 203 213 212 221 231 242 256 260 208 240 262 222 233